RH
21 24 28 29 28 29 31 33 34 33 35 37 39 39 39 40 40 41 42 44 49 50 46 41 35 25 16 13 12 13 13 13 13 13 14 13 14 14 14 14 14 15 17 17 18 20 22 22 25 31 35 45 51 43 45 51 52 59 61 58 60 61 62 64 64 66 67 68 69 69 71 69 64 64 68 68 65 65 65 60 54 43 32 26 21
22 25 28 28 27 29 31 32 32 32 33 36 38 37 37 37 38 39 41 42 44 47 46 42 39 33 24 17 13 13 14 14 14 14 15 14 14 15 14 15 15 15 17 18 18 19 20 21 24 31 35 41 47 42 42 49 52 58 59 58 59 58 60 64 65 66 66 68 69 67 67 66 61 60 63 63 61 63 64 59 51 39 30 25 22
24 27 29 28 26 28 30 31 32 32 32 34 36 37 36 36 37 38 40 41 41 42 42 41 39 37 32 25 17 14 14 15 15 16 16 16 15 15 15 16 16 16 17 18 19 18 19 21 24 30 35 39 45 43 41 46 54 59 55 53 55 56 59 63 65 68 67 68 70 69 68 66 62 59 59 59 55 54 53 48 40 32 27 27 28
23 28 31 32 29 28 29 30 31 32 33 33 33 36 37 35 36 37 39 40 39 39 40 39 38 37 36 33 24 16 15 16 17 17 18 19 18 16 16 17 17 18 18 18 19 20 19 21 24 28 34 40 44 43 41 45 54 57 52 48 52 55 59 64 67 68 68 70 71 70 68 67 66 64 62 59 53 49 47 43 38 34 33 37 41
20 22 26 31 32 30 30 30 31 32 32 33 34 36 38 36 35 36 38 38 38 38 40 38 35 34 34 34 29 21 16 16 17 18 20 21 19 17 16 18 19 19 20 20 21 22 21 22 24 27 33 39 43 44 42 45 52 56 52 47 50 54 58 63 67 68 68 69 70 69 69 70 71 69 64 60 56 51 48 45 43 44 42 41 45
21 19 19 23 27 30 30 30 31 30 31 35 37 38 39 38 36 36 37 37 37 38 39 37 33 31 31 31 31 26 18 16 17 18 21 22 20 19 18 18 20 21 22 23 23 24 24 24 25 28 33 37 41 43 42 43 49 56 54 47 47 53 57 63 67 69 69 70 71 69 70 73 73 72 68 63 59 54 49 44 43 46 42 37 40
20 22 20 21 22 24 27 29 31 31 32 35 37 36 37 39 37 36 36 36 37 38 38 37 34 33 32 29 28 28 24 21 20 20 21 23 22 22 22 20 20 21 23 25 25 26 26 27 28 30 33 36 38 41 42 43 46 49 48 45 45 50 57 64 70 71 69 72 73 70 71 72 70 72 71 66 60 55 50 43 39 39 35 33 36
17 19 20 22 23 22 23 25 28 31 33 34 35 34 34 37 37 36 36 36 36 37 38 38 36 35 33 29 26 26 27 27 26 24 24 23 23 24 24 22 21 22 23 25 26 27 28 29 30 31 34 36 38 41 42 44 46 45 42 41 43 48 56 64 70 71 70 74 75 71 72 71 69 70 70 67 62 59 54 44 36 33 31 32 34
17 17 17 19 23 23 22 22 25 30 32 32 33 32 31 33 35 36 36 36 36 37 37 38 37 37 33 28 27 26 25 27 28 28 26 23 21 22 22 21 22 22 22 24 26 27 29 29 30 31 33 35 38 41 42 43 45 45 43 42 43 48 56 63 68 70 71 73 73 71 71 71 71 71 70 67 64 62 58 48 37 31 31 34 36
17 19 18 16 18 22 23 23 26 30 30 32 34 33 31 31 31 32 34 36 37 35 36 37 36 37 34 29 29 27 23 24 26 26 25 22 20 20 20 20 21 22 22 23 25 27 28 29 30 30 31 34 37 39 40 41 44 46 45 45 43 45 55 63 68 70 71 72 71 70 70 71 72 72 72 70 66 62 58 49 40 33 33 36 40
17 20 21 19 22 28 28 26 28 30 31 35 36 32 32 32 31 30 31 35 36 35 35 36 37 37 35 32 30 27 24 24 23 21 20 19 19 19 19 20 21 22 23 23 25 26 27 27 29 31 31 32 34 36 38 41 44 47 47 48 45 43 51 62 67 70 72 72 70 69 69 70 70 70 73 73 69 65 60 52 45 40 39 40 46
18 19 21 21 26 31 30 27 28 29 29 32 34 33 32 33 31 31 33 35 36 36 35 35 37 38 37 35 32 29 29 28 23 20 18 17 18 19 19 21 21 22 23 22 24 24 25 26 27 30 30 30 31 34 38 41 43 46 48 49 48 43 46 57 64 68 71 72 71 70 69 68 66 68 73 74 72 71 67 60 53 49 47 48 51
18 18 20 21 24 29 30 30 31 31 29 29 29 31 36 37 35 33 34 34 35 36 36 36 36 38 39 36 33 31 33 33 28 25 21 16 18 19 19 20 21 22 23 22 23 24 24 25 26 28 28 30 31 32 36 40 41 45 47 48 48 44 42 50 58 64 67 70 71 69 67 67 66 67 71 72 73 73 71 67 61 56 55 55 53
17 18 19 19 20 24 28 32 35 32 30 32 31 30 35 41 40 37 34 33 34 35 36 37 37 38 39 37 33 31 33 35 33 32 27 19 18 20 19 20 22 23 24 23 24 25 25 24 25 26 26 28 29 30 33 37 38 42 45 46 47 44 41 44 51 59 63 65 67 67 66 67 67 66 67 68 70 70 69 69 65 60 59 58 53
15 17 18 19 19 20 23 28 36 37 33 32 33 32 34 39 42 41 38 34 33 33 34 36 37 38 38 37 33 30 31 35 34 35 35 26 20 20 20 21 22 23 24 25 25 25 25 25 25 26 26 26 28 29 30 32 34 37 41 44 44 42 39 40 45 53 61 64 65 66 66 65 66 66 65 65 66 67 67 68 67 64 61 57 54
13 15 15 17 18 19 19 23 34 43 41 35 32 30 30 36 40 40 39 36 33 32 32 34 37 38 38 36 34 31 31 35 35 35 37 32 23 21 21 22 23 25 25 25 26 26 26 26 26 26 26 26 26 28 29 29 29 31 37 40 40 40 37 36 39 48 58 63 64 65 65 64 66 66 64 64 65 65 66 67 69 68 63 57 57
13 14 14 16 19 21 24 31 40 43 40 37 36 34 32 34 37 38 37 36 33 32 33 34 37 39 38 37 36 34 32 36 37 34 35 35 30 26 26 28 29 29 29 28 28 27 26 26 26 27 27 27 27 27 29 29 27 27 31 35 37 40 38 34 36 43 53 61 62 63 63 63 64 64 64 64 64 65 65 66 67 67 62 59 58
13 13 14 16 19 23 26 33 41 39 33 31 31 32 35 34 32 33 37 36 32 32 33 34 36 37 37 37 37 36 34 36 37 35 35 35 33 29 29 30 32 33 33 33 33 31 29 26 26 26 27 27 28 29 29 29 28 26 27 30 34 38 39 35 34 39 48 55 58 59 60 62 62 62 63 64 65 65 65 64 66 64 62 61 58
15 13 14 16 18 22 21 22 27 30 33 36 34 30 30 31 28 27 31 34 32 33 35 33 33 34 33 34 36 35 36 37 37 36 36 34 32 31 29 30 31 33 33 33 33 34 33 31 27 25 26 26 27 29 30 30 29 28 26 27 29 34 36 35 35 38 43 49 54 56 56 59 62 62 62 63 65 66 64 63 64 64 62 59 55
19 14 14 15 17 19 18 19 22 23 28 37 46 44 29 22 24 24 24 26 28 32 35 34 33 33 32 32 33 33 35 39 38 37 36 34 32 31 30 31 32 33 33 32 30 30 32 34 33 28 25 24 24 27 30 31 31 29 29 27 27 30 32 32 34 36 39 44 49 52 54 57 60 60 60 62 65 66 65 62 62 63 61 57 53
20 15 14 16 16 16 16 17 20 23 25 30 43 54 45 28 22 22 21 20 22 27 30 34 34 33 32 32 32 32 35 38 38 38 36 35 34 33 31 32 33 33 34 34 31 29 28 30 34 34 30 24 23 25 27 29 30 29 30 30 28 27 28 29 30 33 37 41 44 47 51 54 57 58 59 61 64 65 64 61 60 61 57 54 54
23 23 24 22 17 15 15 16 18 22 26 28 32 41 49 44 32 28 28 23 21 25 28 33 37 34 32 32 31 31 34 37 39 38 36 35 35 35 33 34 35 34 33 34 33 31 29 27 28 33 35 30 24 24 27 27 28 28 28 30 30 28 27 28 27 28 34 39 40 42 47 53 56 57 58 60 62 64 63 59 57 56 53 53 55
24 28 31 28 22 18 17 15 16 20 25 28 27 25 36 50 50 43 40 34 27 28 29 31 36 36 34 34 33 30 29 34 38 38 36 35 35 34 33 35 36 34 32 32 32 31 31 29 25 26 31 35 31 27 28 30 30 29 27 28 32 31 28 28 27 26 30 36 38 38 43 51 53 54 57 60 61 63 62 58 53 50 50 52 57
22 28 33 34 31 31 31 23 15 16 20 22 22 20 27 47 57 50 46 45 39 35 37 38 39 40 38 37 36 32 27 26 31 35 33 33 34 33 33 33 33 33 31 31 31 31 31 30 28 24 24 31 35 32 31 32 32 32 29 27 31 33 31 29 29 27 27 31 34 36 41 47 48 49 53 57 60 62 61 57 53 50 51 55 59
22 24 30 34 34 36 40 37 25 18 17 16 19 25 32 47 62 55 46 47 45 38 39 42 43 45 44 42 39 36 31 23 22 27 26 27 31 32 31 31 31 32 32 31 31 30 30 29 28 27 21 24 33 35 34 34 34 34 33 29 30 33 33 32 31 30 27 27 30 35 41 45 44 45 50 54 57 59 59 58 55 53 55 58 63
24 21 25 30 34 36 38 41 36 27 21 15 17 31 46 60 70 63 50 45 42 38 39 41 47 52 50 45 42 41 40 29 21 22 22 22 24 26 27 29 31 33 31 30 29 29 30 29 28 28 23 19 26 34 36 36 35 34 33 32 30 31 33 34 33 32 29 27 28 33 40 44 43 44 49 53 56 57 59 60 59 58 59 62 66
24 23 24 26 29 33 35 37 38 34 29 23 16 23 44 61 69 68 67 58 41 34 39 41 43 48 47 44 42 42 44 36 25 20 20 20 19 21 27 32 34 34 29 25 26 27 28 29 28 29 24 17 19 28 35 38 35 32 30 31 32 32 33 35 35 35 33 31 30 32 37 42 42 45 50 53 56 57 59 62 62 61 62 64 66
27 29 28 26 26 30 33 34 36 34 32 31 24 20 31 49 60 67 76 74 50 31 31 33 32 35 38 43 45 44 42 39 34 27 19 19 20 19 23 29 31 30 25 21 23 25 26 28 29 29 25 18 15 21 31 37 35 29 25 27 31 32 32 36 37 37 36 35 33 31 35 39 39 43 50 54 55 57 59 62 63 62 62 63 66
32 31 27 25 26 29 31 33 34 34 33 33 30 23 24 36 48 53 59 67 62 46 32 27 32 36 37 39 40 40 37 37 43 41 27 19 20 20 19 21 23 22 20 20 22 24 25 27 29 30 25 18 15 17 23 30 31 27 21 22 28 31 33 36 38 38 38 38 36 31 32 38 37 38 46 52 54 56 57 60 62 62 63 64 66
32 31 28 26 28 29 31 33 33 33 34 34 31 26 24 28 37 43 43 46 53 54 47 42 45 49 49 45 39 36 38 39 44 49 43 31 25 25 25 23 21 21 20 21 24 26 28 28 29 31 28 21 17 15 17 22 25 25 20 19 23 28 33 36 38 40 41 40 39 35 34 37 37 36 41 48 54 55 55 58 61 61 64 66 68
32 31 30 29 29 29 31 33 33 33 34 34 31 27 25 25 29 35 39 38 40 47 53 55 55 55 57 59 54 48 49 50 46 46 48 41 31 29 32 28 23 23 23 24 25 26 27 29 29 30 31 27 20 15 16 18 21 24 21 17 17 22 30 36 37 40 43 42 42 40 37 36 35 36 39 45 53 56 55 56 59 60 64 68 70
36 32 30 30 30 29 30 33 33 32 33 35 34 31 29 30 31 31 32 34 37 42 47 50 51 50 50 55 59 59 56 55 53 50 46 39 31 30 34 30 23 22 23 22 24 25 26 28 29 29 30 30 25 17 14 16 20 23 20 16 15 18 26 35 38 40 44 45 44 43 41 38 34 36 41 45 50 55 57 57 58 60 65 69 71
40 35 33 34 32 30 30 32 33 31 31 36 39 38 36 38 40 39 37 35 33 36 42 45 44 43 42 40 43 50 54 52 54 54 48 40 35 32 33 29 21 19 22 21 20 23 26 27 28 28 28 30 27 18 14 16 20 23 19 15 14 15 22 32 38 40 45 47 47 46 45 41 34 34 42 49 50 54 58 58 58 60 64 69 71
40 38 38 37 35 34 33 32 33 31 30 36 40 39 38 40 44 49 54 56 48 37 35 41 44 46 48 43 36 35 37 38 43 47 41 36 36 36 38 39 30 19 18 21 19 19 21 24 26 27 27 30 28 19 14 16 21 22 18 15 14 13 18 29 35 38 44 48 48 47 48 46 38 33 43 55 55 54 59 61 61 62 64 67 70
37 36 38 39 37 37 35 33 32 31 32 36 38 36 36 38 44 51 59 65 64 51 37 35 43 53 58 58 53 42 30 25 29 34 32 30 31 32 35 45 45 30 18 17 19 18 18 18 21 23 25 29 29 20 14 16 20 21 16 13 15 13 14 24 32 34 38 43 46 48 50 50 43 35 43 60 64 58 59 63 63 64 65 66 68
36 35 36 40 39 37 36 34 32 34 37 37 37 39 40 38 43 52 58 63 68 69 59 48 47 54 60 66 67 60 50 41 34 31 31 33 35 33 28 33 44 43 30 20 17 18 18 17 16 18 20 26 28 22 15 15 18 18 15 13 14 13 13 20 29 31 33 36 41 46 49 52 50 40 39 59 73 67 60 62 64 66 68 67 67
38 36 35 37 37 36 36 35 34 39 42 41 40 43 43 40 41 48 56 61 66 72 73 66 57 52 56 67 73 70 67 65 59 49 43 40 41 43 36 32 37 41 38 30 21 16 17 17 16 15 15 20 25 21 16 16 16 15 15 14 14 12 12 17 24 27 28 29 35 44 48 51 54 47 38 52 74 76 66 62 63 67 70 70 70
42 36 36 37 35 35 38 40 44 49 50 49 46 43 41 40 39 44 54 61 64 67 68 66 60 51 48 60 74 76 72 71 69 65 58 52 50 50 47 41 36 33 35 37 30 21 17 16 16 16 15 16 20 21 17 15 15 15 14 14 14 12 11 16 21 22 23 26 32 41 46 48 54 55 44 46 67 79 71 63 64 68 72 73 75
50 40 37 36 35 36 37 41 48 55 56 50 43 38 37 35 35 42 53 61 65 64 59 56 57 54 49 53 63 70 71 70 70 67 63 63 62 58 53 49 43 36 37 41 36 25 18 16 15 15 15 14 16 18 17 14 14 15 14 13 13 12 11 14 17 17 17 22 29 38 43 44 51 59 52 46 61 76 72 65 67 68 68 73 79
63 52 43 38 37 37 37 39 42 46 48 46 39 33 30 30 35 40 45 52 57 54 48 50 56 58 56 54 54 57 59 62 65 62 57 62 69 64 53 48 43 39 41 48 46 31 18 17 17 15 14 16 15 15 16 15 14 14 14 14 13 12 12 14 14 14 14 17 24 33 39 42 50 61 62 54 60 74 74 69 68 66 69 79 86
76 65 55 47 43 40 38 36 37 40 45 48 50 47 40 38 42 42 42 47 49 44 44 52 58 58 57 54 52 53 52 52 60 63 57 57 66 69 61 52 45 42 45 54 57 45 24 15 16 16 15 15 15 15 15 14 14 14 14 14 13 11 12 14 13 13 13 15 21 29 38 45 53 65 70 63 62 72 78 72 68 70 79 86 85
85 74 67 62 60 59 53 42 36 37 41 45 53 56 50 44 42 41 41 42 41 42 46 50 52 53 55 54 53 55 54 52 59 70 70 64 64 69 71 68 61 56 53 54 57 55 42 27 17 15 17 17 15 15 16 14 14 14 13 13 13 12 13 14 14 12 12 12 18 28 40 52 62 71 78 74 68 71 76 75 72 75 82 83 81
90 79 72 66 66 71 69 61 53 46 42 44 50 54 53 48 40 38 40 38 37 40 45 46 47 48 52 57 59 58 57 55 55 61 67 71 71 69 71 75 76 71 61 49 42 44 50 47 29 14 13 17 15 14 15 15 13 13 12 12 12 11 12 14 13 11 12 12 17 29 44 60 74 83 85 82 74 68 71 76 77 76 78 81 84
94 87 79 73 72 73 71 68 65 59 55 55 58 60 63 57 44 36 36 36 36 38 42 45 44 41 45 55 60 59 56 55 55 55 57 65 68 65 65 70 74 73 67 57 47 41 44 53 49 31 17 15 15 14 15 14 14 13 12 12 13 12 13 15 14 12 13 13 18 33 52 72 88 94 92 89 78 64 65 76 79 76 76 79 82
98 95 87 80 80 78 73 65 58 52 52 54 55 57 59 53 43 38 37 36 33 34 39 43 42 39 41 47 52 55 54 54 56 57 56 58 61 62 64 65 68 72 72 68 65 59 52 55 63 57 37 21 14 13 14 14 14 14 13 12 13 13 12 14 15 14 13 14 20 40 63 83 95 99 98 94 76 59 64 81 84 78 75 76 78
100 99 92 85 82 77 73 68 62 55 52 49 47 47 46 44 43 45 44 40 35 34 38 41 40 37 36 38 42 47 50 52 54 53 52 53 55 57 61 62 64 72 77 73 71 73 70 66 67 67 58 42 22 11 13 15 13 14 14 12 13 14 13 15 18 17 17 18 25 45 71 88 97 100 100 94 80 67 71 85 90 83 76 74 76
100 100 98 96 91 84 77 70 63 58 54 49 47 47 50 52 52 49 47 45 42 40 40 40 38 36 35 38 42 45 49 51 51 52 54 56 53 49 49 50 51 58 69 74 73 75 77 75 71 67 67 62 39 14 10 15 12 13 16 13 13 14 12 14 18 18 17 16 22 45 76 93 98 101 99 96 94 86 78 81 89 86 76 72 77
100 99 99 98 96 94 92 85 76 71 66 58 53 52 53 54 50 45 43 42 41 40 39 38 37 36 38 41 44 46 50 49 46 49 55 60 61 55 47 44 47 57 69 74 74 78 81 81 78 71 67 66 51 22 9 13 13 12 14 13 13 14 13 14 17 16 15 17 28 53 78 89 93 98 98 98 101 95 83 83 90 86 75 75 81
100 101 99 98 96 94 94 93 88 84 79 70 61 58 55 49 42 37 38 38 37 36 36 37 38 37 36 39 42 45 48 49 46 45 46 53 64 65 55 47 51 63 72 68 67 79 85 80 79 77 68 62 51 25 9 11 12 11 15 16 13 12 14 16 18 18 19 25 38 54 66 71 80 90 95 98 100 97 92 91 89 80 75 80 85
97 100 101 98 96 94 92 89 84 81 81 76 68 66 68 63 52 39 33 32 32 31 33 37 39 40 39 41 44 45 46 48 48 45 44 52 64 66 58 50 51 59 64 57 59 75 83 80 82 82 72 67 58 34 13 11 15 14 14 15 14 19 26 28 28 31 35 41 49 58 63 69 79 88 94 97 93 91 95 95 86 80 81 85 88
95 98 101 99 96 96 96 93 87 85 87 83 73 68 70 71 63 48 37 34 36 39 42 41 39 43 52 57 58 58 59 60 58 55 55 61 65 65 61 59 63 68 63 55 59 68 67 68 80 83 74 71 73 56 27 13 18 23 22 23 34 49 53 45 35 35 44 53 61 67 71 76 82 87 92 89 76 76 91 94 85 85 91 90 88
Wind_Speed
37 36 33 31 28 28 29 28 29 30 28 25 24 27 26 23 20 18 15 11 10 12 13 14 15 18 20 20 20 18 18 18 17 16 14 14 13 13 13 13 12 11 12 12 11 10 10 9 8 8 8 6 6 7 5 3 4 5 6 6 6 7 7 7 8 10 10 10 10 11 12 12 12 11 12 14 15 14 13 12 11 11 12 12 12
39 37 34 33 33 32 31 30 30 31 31 30 28 28 29 27 22 19 18 14 11 11 12 13 14 17 20 21 21 20 20 19 19 18 16 16 14 13 13 14 13 12 12 12 12 12 11 10 9 9 9 8 9 9 7 5 5 5 6 6 6 8 8 7 8 9 9 10 10 11 12 12 12 12 13 15 15 14 13 12 12 12 13 13 13
40 39 36 37 36 34 33 32 32 31 32 33 32 31 32 34 29 21 20 18 13 11 11 12 13 14 18 21 22 22 21 20 21 20 18 17 16 15 14 14 14 13 13 13 13 13 12 11 10 10 11 10 10 10 9 7 6 6 7 6 6 8 8 7 8 8 8 9 10 10 11 11 12 12 13 15 14 12 11 12 13 13 12 12 13
39 37 36 37 36 35 35 34 33 32 32 32 33 34 35 38 34 25 21 19 15 12 13 12 13 13 14 18 22 24 23 22 23 22 20 18 17 17 15 14 15 14 14 13 14 14 14 12 12 12 12 11 11 11 11 9 8 8 8 8 7 8 8 8 8 8 7 8 9 10 11 11 11 11 12 13 13 10 9 10 12 12 12 10 12
40 38 36 36 35 35 36 35 34 34 33 32 34 36 37 40 38 28 23 21 16 15 15 14 15 15 14 17 21 24 25 24 23 21 19 18 18 18 17 15 15 15 15 14 14 15 14 14 13 13 13 13 12 12 12 11 9 8 9 9 9 8 9 9 9 8 8 8 9 10 11 10 11 13 13 12 12 11 9 9 10 11 12 10 11
40 42 41 40 38 35 36 35 33 34 33 31 32 33 35 40 38 30 27 24 19 19 18 16 18 19 17 18 20 22 25 25 23 20 20 19 19 18 17 16 16 17 16 16 15 15 15 15 14 14 15 14 13 13 13 12 11 9 9 9 10 9 9 9 9 9 8 8 9 10 10 11 12 14 14 13 14 13 12 11 10 11 13 12 12
39 43 43 44 45 41 39 37 33 33 33 32 32 31 33 38 38 32 29 26 23 23 20 18 20 21 19 18 19 21 23 24 23 22 21 21 21 20 18 18 18 18 18 17 17 16 15 16 15 15 16 16 15 14 13 13 12 11 10 9 9 10 10 9 8 9 9 8 10 11 10 11 12 13 14 15 15 14 13 13 12 13 14 14 14
36 39 41 44 48 48 45 41 37 33 31 33 35 35 34 37 38 35 31 26 26 26 22 20 21 22 21 19 18 19 20 22 23 24 24 24 23 21 20 20 19 18 19 18 18 17 16 16 16 16 17 17 16 15 14 14 13 12 11 10 9 10 10 9 9 9 9 9 10 11 11 12 12 12 13 14 14 14 14 14 13 14 14 14 17
34 30 38 43 44 49 49 45 42 37 33 32 34 36 37 39 41 41 37 32 30 28 25 23 22 23 25 23 20 19 18 20 23 25 25 25 24 22 21 20 19 19 19 18 18 18 17 17 17 16 16 17 18 17 15 14 14 13 12 12 10 10 10 10 10 9 8 9 11 12 12 13 13 12 12 13 13 14 15 15 14 15 14 14 17
34 24 32 40 41 48 52 47 42 38 34 32 31 34 37 40 42 44 46 43 37 33 30 28 26 26 29 28 23 21 20 20 22 25 26 26 25 24 22 21 20 19 19 18 18 18 18 17 17 16 16 17 18 18 17 15 14 13 13 13 12 10 9 10 10 9 9 10 11 12 13 13 13 13 12 12 13 13 15 16 16 16 15 15 17
30 20 27 35 37 43 48 45 42 39 34 33 33 34 35 38 41 42 46 48 45 40 36 34 31 29 31 31 27 24 24 23 23 25 26 27 26 25 23 21 20 20 19 19 19 18 17 16 16 16 16 16 18 18 18 16 15 14 14 13 13 12 10 9 10 10 10 10 11 11 12 13 13 13 12 13 13 13 14 16 17 17 17 16 17
29 25 26 28 30 34 40 41 42 40 36 36 37 38 37 38 40 42 43 47 49 46 42 38 36 33 32 32 30 27 27 26 25 25 26 28 27 26 24 23 22 20 20 20 19 18 17 15 14 15 15 16 16 17 18 18 16 15 14 14 14 13 11 10 10 10 10 10 11 11 12 13 13 12 12 13 14 14 15 15 16 18 19 19 18
35 37 33 28 26 27 32 40 43 41 39 38 36 36 39 38 38 41 42 44 47 49 48 44 40 37 35 34 33 32 29 28 27 26 26 28 28 27 26 24 22 21 20 20 19 18 17 14 13 14 15 15 16 17 18 19 17 15 15 15 15 14 13 11 11 11 10 10 11 11 11 12 12 12 12 13 13 14 15 15 15 16 18 20 21
32 38 37 33 30 27 26 33 41 43 41 39 37 36 38 38 37 39 40 40 42 46 50 49 46 42 39 36 37 37 33 29 28 27 26 28 29 29 27 24 22 20 19 19 19 19 17 15 14 14 14 15 16 17 17 18 17 16 15 16 16 15 14 13 12 11 11 11 11 12 12 11 12 12 12 13 13 14 14 15 15 16 17 19 20
29 34 38 36 33 31 30 32 37 41 41 39 39 37 38 41 39 37 38 38 38 40 44 48 49 47 43 40 41 43 39 32 29 28 27 28 30 30 28 25 22 20 19 18 18 18 17 16 16 16 15 15 16 17 17 17 17 16 16 16 16 16 15 13 12 12 12 12 12 12 12 12 12 13 13 12 13 14 14 14 15 16 17 18 19
25 29 34 35 34 34 35 34 33 35 36 37 40 40 41 43 43 42 40 40 39 38 39 43 48 49 46 43 43 46 44 36 31 30 29 30 31 31 29 26 23 21 20 20 19 18 17 17 17 17 17 16 16 17 17 16 15 16 17 17 16 16 16 14 12 12 12 13 13 13 13 13 13 14 14 13 13 14 15 15 15 16 17 18 20
24 25 28 30 31 33 33 33 33 34 32 32 36 40 42 42 44 45 45 45 43 39 38 41 46 49 49 49 49 49 47 40 34 32 30 31 32 32 30 27 25 25 24 24 23 21 20 18 19 19 18 18 17 16 17 16 15 15 16 17 16 16 16 15 13 12 12 14 14 14 14 13 13 14 14 14 14 14 15 15 16 16 17 18 20
29 28 30 30 27 25 24 25 28 33 37 38 36 36 38 39 40 42 43 47 47 41 38 40 44 47 49 50 52 52 50 44 38 34 31 32 33 33 32 28 24 23 25 27 27 25 23 21 20 20 20 20 19 18 17 16 15 14 15 17 16 16 17 16 14 13 13 14 15 15 15 14 14 15 15 14 14 15 15 16 15 16 16 17 18
27 30 33 35 31 22 18 18 18 21 28 38 41 40 39 38 38 39 38 42 45 42 40 41 43 46 47 46 47 49 49 46 43 38 35 36 36 34 32 29 23 22 24 26 26 26 25 24 23 22 22 22 21 20 18 17 16 15 15 16 16 16 17 17 16 14 13 14 15 16 16 15 14 15 15 15 15 15 15 16 15 15 16 17 17
23 30 32 35 35 29 26 26 23 20 19 25 34 41 45 45 43 44 43 41 43 43 42 43 45 47 49 49 47 47 48 48 46 43 39 39 40 38 35 30 26 25 27 28 27 26 25 25 26 25 23 23 22 22 20 19 18 16 15 15 16 16 17 17 17 16 15 15 15 16 16 15 15 15 15 15 15 15 15 15 15 15 15 16 17
19 27 29 31 36 37 36 34 29 27 23 23 29 38 50 56 53 51 50 47 46 46 45 45 46 47 48 50 48 47 47 48 48 46 42 40 41 42 41 38 34 32 33 33 32 30 27 26 27 28 26 24 23 22 21 20 19 18 17 16 16 16 17 18 18 17 16 15 16 16 16 16 16 16 16 16 16 16 15 15 15 15 15 16 16
18 18 22 25 32 38 39 37 33 30 27 29 33 37 49 63 63 56 52 49 49 49 46 45 46 47 48 48 47 46 46 47 49 48 45 42 41 40 43 45 44 41 39 36 35 35 33 29 28 29 30 28 25 23 22 21 21 20 19 18 16 16 17 18 18 17 17 16 16 16 16 17 17 16 16 16 16 16 15 15 15 15 15 16 16
22 17 18 20 26 32 35 35 34 33 31 32 35 33 36 48 58 57 54 49 46 47 47 45 45 46 48 48 46 45 46 48 50 50 47 45 42 40 40 43 43 43 41 40 39 39 37 34 31 30 31 32 29 26 25 24 23 22 20 19 18 17 18 18 18 18 17 17 17 16 16 17 18 18 17 16 16 16 15 15 15 15 15 15 16
26 20 19 19 22 26 29 31 33 36 35 34 35 34 33 33 37 41 43 44 43 45 47 45 44 45 46 48 47 46 45 47 49 50 49 48 46 45 43 42 41 42 43 42 42 41 40 38 35 32 32 34 33 30 28 27 25 24 22 20 20 19 19 19 18 18 18 18 17 17 16 17 19 19 17 16 16 16 15 15 14 15 15 15 16
25 24 23 23 23 24 25 27 30 35 38 37 34 32 33 32 32 33 33 34 38 42 45 45 45 44 44 46 48 47 47 48 49 50 49 49 48 48 47 45 44 44 44 44 44 44 42 41 40 36 32 34 35 33 31 29 27 26 25 22 22 22 21 20 19 18 18 19 18 17 17 18 20 20 17 15 16 16 15 15 14 15 15 15 16
20 23 28 30 30 28 27 27 27 31 36 39 37 30 24 23 27 32 31 28 32 38 42 45 45 44 44 45 46 47 48 48 50 51 50 49 48 48 48 48 47 47 46 46 47 46 45 43 42 38 34 33 36 36 33 30 28 27 27 25 24 23 23 21 20 19 19 19 19 18 17 18 20 20 18 16 16 17 16 15 15 15 15 16 17
17 19 26 33 36 34 33 32 29 29 33 37 39 36 28 20 19 23 25 27 31 35 39 43 43 43 44 45 46 48 48 49 50 51 51 49 47 47 49 49 49 48 47 47 48 47 46 45 43 40 35 34 35 36 35 33 30 27 27 28 26 25 24 23 21 20 19 19 19 19 18 18 19 20 19 18 17 17 17 16 16 16 17 17 18
19 18 24 30 34 36 37 37 34 31 33 35 38 39 36 32 26 23 23 25 29 35 38 40 41 42 44 46 47 48 49 49 49 50 50 51 50 48 48 49 50 50 49 48 48 48 47 47 45 42 37 35 35 36 35 34 31 28 27 28 28 27 25 24 23 21 19 20 20 20 19 18 18 19 19 19 18 18 18 17 18 18 19 19 19
25 22 22 25 29 32 34 37 38 36 36 36 38 41 40 38 35 33 30 28 28 33 39 41 41 41 43 45 46 46 48 49 49 49 48 50 51 50 48 48 50 52 52 50 49 48 48 48 47 44 39 36 36 35 34 33 32 29 27 28 29 28 27 25 25 23 21 21 22 21 20 19 18 19 19 19 19 19 19 18 19 19 20 20 20
31 26 23 23 26 28 27 28 33 38 40 38 39 42 43 41 38 37 38 36 34 34 38 41 42 40 39 41 42 43 45 47 50 51 48 48 51 54 52 48 48 50 51 51 50 49 48 47 47 46 43 39 37 35 33 33 32 30 28 29 30 29 28 27 26 25 23 22 23 22 22 21 20 19 20 20 20 20 20 19 19 20 20 20 21
35 30 28 24 23 26 26 23 23 29 36 38 41 45 46 43 41 40 40 41 41 40 41 42 43 41 38 38 39 41 43 46 49 51 50 50 51 56 57 51 48 48 48 50 50 49 48 47 47 47 46 43 39 36 34 33 32 31 29 29 30 30 29 28 28 27 25 24 24 23 23 23 21 20 20 20 20 21 21 20 20 20 20 21 22
37 33 33 29 25 26 29 27 23 25 30 33 36 43 44 42 40 40 41 43 45 45 46 47 47 46 43 41 41 41 42 45 48 50 52 52 51 55 57 55 51 49 47 48 49 49 48 47 47 47 47 46 42 38 36 34 33 32 31 30 30 30 31 30 28 28 27 26 25 24 24 25 23 21 20 20 20 21 22 21 21 21 21 21 22
37 35 35 33 29 27 31 33 29 25 27 28 28 31 36 37 36 35 36 41 46 48 49 49 49 49 48 47 48 47 46 45 47 49 51 52 53 55 57 57 55 51 48 47 47 47 47 48 48 47 46 47 44 40 37 36 34 33 32 31 30 31 32 31 29 29 28 29 28 25 24 25 25 24 22 21 21 22 23 23 22 22 22 22 23
39 38 36 35 32 30 32 34 31 26 27 29 30 30 32 35 36 35 33 35 41 46 48 48 48 45 44 45 47 50 52 50 48 49 49 50 54 56 56 56 56 54 52 50 48 47 47 47 48 48 46 46 45 42 39 37 35 34 33 32 31 31 32 32 30 29 30 31 30 27 25 26 26 26 24 21 21 22 24 24 23 23 23 23 23
40 40 37 35 34 32 30 30 30 28 28 31 34 36 35 36 38 38 36 35 36 40 43 46 47 44 41 42 43 46 50 51 50 49 49 48 51 55 55 55 55 56 55 53 50 48 48 47 47 47 47 47 46 44 40 37 36 35 34 34 32 32 32 32 31 31 31 33 32 29 27 26 27 27 26 23 22 23 25 25 25 24 24 24 24
40 40 39 36 35 33 31 30 30 29 29 32 35 37 38 39 38 37 37 37 36 38 39 42 47 47 44 44 45 46 48 51 51 50 50 49 49 51 55 56 57 57 56 54 53 50 49 48 46 45 46 46 47 46 42 39 37 36 35 35 34 32 31 31 32 32 33 34 33 31 29 27 26 27 27 25 24 25 26 26 25 25 24 25 25
41 40 38 38 36 33 32 33 33 31 31 33 36 38 38 39 38 37 38 39 39 39 37 36 41 49 51 47 45 46 47 50 52 53 51 50 49 49 52 55 57 59 58 57 56 54 51 50 47 46 46 45 47 47 44 40 38 36 36 36 34 32 30 31 32 33 33 34 34 32 30 28 26 27 28 27 26 27 27 27 26 26 25 26 26
40 42 39 37 37 35 33 34 32 30 29 32 35 37 38 38 39 39 41 41 40 38 35 32 35 44 54 53 48 47 46 46 49 53 53 51 50 49 50 51 54 57 59 59 58 56 54 52 49 48 47 46 47 48 45 42 39 37 37 37 35 33 30 30 32 33 33 35 35 33 32 30 28 26 27 28 28 28 29 28 27 26 26 26 27
34 40 41 38 37 36 36 36 33 29 28 30 33 35 37 39 40 41 42 41 38 34 32 33 35 38 48 55 53 51 49 45 45 49 53 53 50 49 50 50 51 54 56 59 60 59 56 53 50 49 48 47 48 48 46 43 40 38 38 38 37 34 31 31 32 32 32 34 35 35 33 31 29 27 27 28 29 29 30 30 28 27 27 27 27
24 32 38 38 38 39 40 40 38 34 30 31 35 38 40 41 41 42 43 41 37 33 30 32 34 34 39 49 55 57 56 53 49 49 51 52 50 49 51 50 50 52 55 58 61 61 58 53 50 49 48 48 48 48 46 44 40 39 39 39 38 35 32 31 31 31 32 33 35 35 34 32 30 28 27 28 29 29 31 31 29 28 26 25 26
18 23 30 33 35 38 40 42 42 39 35 32 32 34 37 38 39 41 42 40 38 34 31 30 33 35 37 40 47 52 57 60 56 51 51 53 52 51 52 52 52 53 55 58 59 59 57 53 49 49 49 49 49 48 46 44 41 40 40 41 39 36 32 31 32 31 31 33 35 35 34 32 30 28 28 29 28 29 31 32 30 28 26 26 26
14 17 23 28 31 33 36 40 42 43 41 36 32 33 35 37 38 38 38 38 37 35 33 31 32 35 36 36 39 42 47 54 57 53 51 53 53 53 54 55 55 55 56 58 59 59 58 55 51 50 51 51 51 49 46 44 42 41 41 41 39 36 34 33 33 32 32 33 34 34 34 33 30 28 29 29 28 29 32 32 30 29 29 29 27
12 15 20 24 27 30 33 36 38 41 41 38 36 35 36 38 38 36 35 37 37 36 35 33 32 33 34 34 36 37 38 43 50 53 54 54 54 53 54 55 57 57 58 60 60 60 60 58 55 53 53 54 53 51 48 45 42 41 41 40 39 37 35 34 34 33 33 33 33 33 34 33 30 28 30 30 29 29 32 32 31 31 31 30 26
12 13 18 21 24 28 31 34 36 36 36 37 36 37 39 41 40 38 37 38 37 37 38 36 35 36 35 34 34 35 35 36 39 45 51 55 55 55 56 58 58 58 59 60 60 61 62 61 59 57 56 57 56 53 50 46 43 42 41 40 40 39 36 35 35 34 34 34 33 33 34 32 29 29 30 31 31 30 32 34 32 32 32 30 27
13 12 17 21 23 26 28 31 33 34 35 38 38 38 39 39 38 36 38 39 39 39 40 37 36 35 34 34 35 36 35 36 36 39 45 50 52 55 57 59 58 57 59 61 60 60 62 63 63 62 59 57 57 55 51 49 46 44 43 42 42 41 38 37 37 36 35 34 33 34 34 32 30 29 29 32 33 32 32 33 32 32 32 30 27
18 14 15 19 23 27 28 29 30 31 33 37 39 40 39 38 36 35 35 36 38 39 38 37 35 34 34 35 37 38 38 36 36 39 43 45 49 54 58 59 59 60 63 63 60 59 61 62 64 64 60 57 57 55 52 50 48 47 46 45 44 42 40 39 39 38 36 35 34 35 35 33 32 31 31 33 34 32 30 31 31 31 31 29 27
22 17 14 15 19 22 24 26 28 29 31 34 37 38 38 36 36 35 33 32 32 31 32 33 32 33 34 35 38 40 40 38 38 42 44 43 45 51 57 60 62 63 64 63 59 60 60 58 60 63 61 56 56 56 52 50 50 49 49 48 46 45 43 42 43 41 38 36 36 35 34 33 32 33 32 32 34 34 33 33 32 31 29 28 27
24 18 16 16 17 18 18 18 21 23 27 29 31 33 33 32 32 33 33 32 29 26 27 28 30 32 34 36 39 40 41 40 40 43 44 40 39 43 47 52 57 59 59 59 59 61 62 58 57 62 62 58 56 56 53 50 50 50 50 48 47 47 46 46 46 42 39 37 37 36 35 34 35 36 34 35 39 40 38 36 33 28 26 27 27
30 23 17 17 17 16 15 16 19 19 19 21 24 26 28 28 29 31 32 32 30 27 27 28 30 32 35 38 40 40 41 41 41 42 42 39 37 38 38 42 47 49 49 52 55 57 60 58 56 59 61 59 57 55 53 50 50 50 50 49 48 49 49 49 47 43 40 38 37 36 35 35 38 39 37 37 41 43 41 39 32 26 25 26 26
33 29 20 15 16 16 16 17 18 17 15 16 19 22 24 24 25 27 30 30 29 29 29 30 31 32 34 36 38 39 40 40 40 41 40 37 35 36 37 38 41 42 45 49 50 49 50 51 54 57 59 58 57 54 52 52 51 51 51 51 51 51 51 49 45 41 39 38 36 35 35 35 37 38 37 37 39 41 44 43 33 24 25 27 25
34 33 28 21 18 15 13 13 15 15 13 14 17 19 21 22 21 22 25 26 26 27 29 32 32 30 29 29 30 32 34 35 36 37 37 35 34 35 37 38 40 41 44 47 50 51 50 48 49 55 57 55 53 55 55 54 52 51 52 53 53 52 51 48 42 38 37 37 36 36 36 36 37 37 36 37 36 37 43 43 31 23 25 26 25
Wind_Direction
259 259 254 250 254 256 251 246 246 244 238 239 235 225 217 208 210 216 220 227 226 224 226 226 224 225 227 225 221 217 215 216 220 222 222 225 224 222 229 232 232 236 242 247 251 253 253 256 261 260 262 266 274 297 314 316 311 291 292 299 295 292 287 285 278 273 274 279 282 275 268 268 270 274 276 280 283 286 287 288 287 284 283 286 290
255 255 251 251 256 253 247 246 249 250 243 239 238 235 230 222 213 216 222 222 221 221 220 221 219 223 226 224 223 220 220 221 224 228 227 230 233 229 232 238 239 240 243 251 254 257 259 260 264 262 264 267 269 287 302 303 302 290 290 293 292 296 293 291 286 274 267 273 278 274 270 267 267 271 272 275 278 280 282 284 284 283 284 290 294
247 249 248 247 252 250 245 245 248 252 248 243 242 240 238 232 220 216 224 217 207 214 216 216 215 219 225 225 223 221 221 224 226 231 232 233 237 235 236 241 245 245 245 252 256 260 264 263 264 264 265 267 268 281 294 297 293 286 293 297 295 302 301 293 287 271 262 271 276 274 271 265 264 267 267 272 276 277 276 276 278 279 282 291 296
242 244 244 241 243 245 243 242 245 247 244 241 241 239 237 235 225 216 219 210 200 214 217 212 212 216 226 227 224 222 222 224 225 229 234 236 238 238 238 242 249 250 249 252 256 261 267 267 265 265 266 266 268 277 289 294 289 287 298 307 306 306 305 295 284 273 267 275 279 277 275 271 269 267 261 265 273 278 277 273 275 281 287 294 297
239 242 245 241 239 241 240 242 244 244 241 238 240 239 233 229 226 219 213 207 207 219 217 213 215 217 226 230 227 224 223 225 227 230 237 240 239 238 241 244 249 252 252 253 257 261 267 270 269 267 266 266 269 276 285 288 287 288 297 306 309 307 306 300 288 280 279 282 284 286 286 276 265 260 259 262 268 274 276 273 277 284 289 296 297
240 244 246 242 240 241 240 242 245 244 241 237 238 240 232 223 222 218 208 206 214 219 214 214 218 220 224 228 227 226 226 229 232 235 241 243 242 241 245 248 248 251 253 254 257 260 265 270 271 270 268 268 270 273 280 287 287 286 290 299 304 303 304 302 295 285 285 289 290 294 291 276 262 258 260 262 266 271 274 276 280 283 289 296 298
240 243 245 243 241 240 241 242 242 241 239 234 234 237 232 223 221 216 207 208 216 218 215 215 219 222 223 223 224 225 228 231 234 236 237 240 243 246 249 249 248 249 251 252 255 258 262 267 270 271 271 272 273 274 278 285 287 286 288 295 298 302 305 302 295 288 291 295 291 295 294 283 272 264 263 264 267 273 277 279 280 280 289 298 303
238 245 246 246 245 243 242 243 240 238 237 236 235 236 232 226 223 218 211 211 217 218 219 218 220 224 223 220 220 223 230 235 235 235 235 235 238 244 247 248 249 249 249 250 252 254 258 263 267 271 272 275 276 276 278 282 284 288 294 300 300 304 307 303 296 292 294 292 287 292 296 291 285 275 270 271 273 278 280 280 280 280 288 300 306
235 253 251 246 249 246 242 243 241 235 235 239 239 238 236 232 228 224 221 221 220 220 223 221 221 226 224 220 221 223 229 239 240 236 234 233 233 237 241 244 247 246 247 247 248 251 254 258 264 269 273 277 278 277 280 282 283 287 295 301 304 306 307 305 300 296 291 285 284 291 296 296 293 285 280 280 282 284 284 282 281 282 289 298 304
234 262 264 250 251 249 240 239 240 235 235 237 236 237 238 235 229 228 228 226 223 220 223 223 222 226 224 220 223 225 226 238 244 238 234 231 231 233 237 241 244 243 243 244 246 248 251 254 259 267 272 276 278 279 281 283 284 286 291 298 303 307 309 305 299 294 288 283 284 291 296 297 294 288 285 286 286 287 287 287 285 286 291 296 298
230 262 277 256 249 245 237 235 237 236 233 227 226 234 239 235 230 229 229 227 224 221 222 224 223 224 223 219 220 223 227 236 243 240 235 230 230 232 235 240 241 241 240 240 242 244 245 250 255 262 269 272 277 280 282 283 284 284 287 294 301 307 311 306 297 290 285 283 285 290 294 295 293 290 286 283 284 287 288 291 292 293 296 296 292
235 255 273 258 247 241 237 239 240 238 236 231 230 236 238 236 234 231 228 227 225 223 224 226 224 223 222 219 216 219 229 236 238 240 237 230 229 230 233 237 238 237 237 236 239 242 242 246 252 258 265 271 276 280 281 282 281 283 286 292 299 305 310 309 300 290 283 282 285 289 293 294 295 293 284 279 280 282 283 286 291 295 299 297 292
248 252 259 258 253 247 243 243 241 238 240 239 238 237 234 233 233 230 228 229 229 227 227 228 227 225 222 218 215 218 228 237 237 238 240 232 228 229 230 235 237 235 234 235 239 243 244 244 248 254 260 267 273 276 279 280 280 283 286 291 297 300 306 310 306 296 285 280 280 283 289 293 295 291 281 276 275 274 276 280 284 289 295 295 294
254 248 247 250 253 252 250 249 244 240 238 237 236 236 233 230 230 230 230 231 232 232 230 229 229 227 223 218 217 218 225 236 239 238 241 236 230 228 229 231 234 234 234 237 241 245 246 246 247 249 254 260 267 273 277 280 282 284 285 289 294 296 300 305 307 300 289 281 277 280 286 289 290 287 280 275 274 274 277 280 281 283 288 291 295
260 249 240 239 244 245 249 255 249 238 235 235 233 233 232 230 230 231 232 233 235 235 232 230 229 228 225 221 222 224 224 231 240 238 237 238 233 229 228 229 232 233 235 238 243 246 248 247 247 248 251 256 263 269 275 279 283 285 285 287 290 292 294 298 303 300 290 282 276 275 280 284 285 283 281 277 276 279 281 282 282 282 286 289 293
261 256 244 242 246 248 253 258 250 236 234 239 240 237 234 230 230 232 235 236 236 235 234 232 230 229 227 224 228 230 227 229 239 237 233 236 236 232 229 230 232 235 239 242 245 247 247 247 248 249 251 254 259 265 270 276 282 285 285 286 288 289 289 291 297 299 291 282 275 273 275 279 281 279 278 279 277 279 281 282 283 283 284 288 292
262 257 245 246 251 253 257 257 249 242 240 240 240 238 233 231 232 235 237 238 235 234 234 231 230 230 229 231 234 231 227 230 238 237 233 233 234 233 232 233 236 240 244 248 249 248 246 246 247 249 251 255 258 261 266 272 278 284 285 286 287 287 286 287 291 295 292 284 278 274 274 276 279 278 278 278 276 277 279 280 282 282 283 286 292
264 253 240 243 247 247 249 248 247 248 248 244 239 234 231 232 236 238 237 232 230 234 236 233 230 231 232 235 235 230 228 231 235 235 234 232 231 232 233 234 238 244 248 249 250 248 246 246 247 249 251 255 258 259 262 268 273 279 284 285 285 285 285 286 287 289 288 285 281 276 274 275 277 278 278 276 275 276 278 280 280 280 282 287 292
263 254 244 243 243 242 243 241 238 242 250 249 244 238 235 235 236 238 237 230 227 232 236 235 233 231 231 233 231 230 231 232 232 234 238 237 233 231 233 236 239 245 250 250 249 248 246 246 247 248 251 254 258 259 259 263 268 274 279 283 284 283 283 283 284 285 285 284 282 277 275 275 275 277 278 277 276 275 277 279 278 278 281 286 290
265 252 247 244 244 251 257 252 235 226 243 253 245 242 243 242 237 236 237 235 234 235 235 234 235 233 231 232 233 232 232 230 230 235 240 241 238 235 234 237 241 247 252 253 252 250 249 248 247 247 249 251 255 257 258 260 264 269 274 279 282 280 280 280 280 282 282 282 282 279 277 275 275 278 279 278 276 274 274 275 275 275 279 284 289
280 250 250 254 253 256 261 260 247 232 236 242 241 244 243 240 239 239 238 237 236 237 236 234 234 233 231 232 234 234 233 232 231 234 239 240 241 239 236 238 244 249 252 255 256 255 253 252 250 248 248 249 251 253 255 258 262 266 269 273 278 279 278 279 278 278 280 281 282 281 280 277 276 277 278 278 275 272 272 272 274 273 275 281 288
301 262 254 259 258 257 260 262 256 242 237 234 237 247 245 236 231 230 230 232 233 234 235 234 231 230 229 230 233 235 236 236 234 235 239 240 242 242 240 242 246 247 249 254 257 257 256 255 255 253 249 247 247 248 253 259 263 266 268 269 273 278 278 277 277 277 277 278 280 283 282 278 276 275 275 276 273 270 270 271 272 272 273 281 289
299 276 258 256 255 257 259 260 256 247 242 241 242 256 261 241 228 224 221 221 227 230 231 233 232 230 230 230 232 234 235 236 236 237 239 240 241 242 242 242 242 242 247 252 254 256 257 255 256 257 253 249 246 247 251 259 264 266 267 269 268 272 276 276 277 277 275 275 277 281 283 279 277 276 275 275 271 267 268 271 271 271 274 281 287
293 272 252 251 253 258 257 253 252 249 246 250 252 258 265 247 230 230 226 218 223 230 230 231 233 233 234 234 234 234 234 234 235 237 238 238 240 242 243 242 241 242 246 250 252 255 256 255 256 257 257 253 248 247 250 255 262 265 267 269 267 267 271 274 276 276 273 274 275 279 282 279 277 277 276 275 270 266 267 268 269 271 274 279 284
299 279 258 250 251 259 258 246 244 245 246 251 252 254 261 251 228 222 225 224 229 235 235 234 234 234 235 237 236 235 235 235 234 235 236 236 238 241 244 244 243 244 247 249 252 254 255 257 257 257 259 258 251 249 249 251 258 263 265 266 265 264 266 270 275 276 273 272 273 276 279 278 278 279 278 276 271 267 268 269 269 271 274 278 283
297 289 272 259 251 251 254 246 238 238 242 248 248 243 249 256 239 222 218 226 236 239 238 237 237 237 238 240 239 237 236 236 236 236 235 235 236 238 241 243 243 243 247 250 252 252 253 256 256 254 257 260 255 250 248 249 253 259 262 264 264 262 263 266 272 276 275 271 271 273 275 277 279 281 281 277 273 271 271 270 270 272 275 277 280
279 293 283 269 259 253 250 246 241 237 236 242 247 240 228 226 240 235 223 226 235 238 238 237 239 242 244 244 242 239 236 235 236 237 237 236 236 237 237 239 241 242 245 248 248 249 251 254 254 253 255 260 258 252 248 248 251 256 259 261 263 262 261 262 267 272 274 271 269 269 271 274 278 281 281 278 276 274 272 269 268 269 271 273 275
258 279 283 273 263 258 252 245 243 242 238 237 241 241 232 220 217 220 218 222 233 241 244 244 244 244 244 243 242 240 238 236 236 238 238 237 237 238 238 238 239 242 244 244 245 247 249 251 252 251 253 258 259 254 249 247 249 253 256 258 261 261 260 259 262 267 270 270 268 266 267 269 274 278 278 275 274 272 269 266 264 265 268 271 273
250 255 266 265 259 256 254 247 242 241 240 240 238 240 239 230 220 215 214 214 223 236 245 249 248 245 241 240 240 240 240 239 237 236 236 237 237 238 240 241 240 241 242 242 244 246 247 248 249 249 251 257 260 256 252 249 248 250 253 257 259 260 259 258 258 262 265 267 266 264 264 266 270 273 274 272 271 270 267 265 264 265 268 271 273
252 248 249 259 259 253 252 252 247 242 241 241 239 239 241 239 231 224 222 221 221 226 236 241 243 242 241 239 238 238 241 242 240 236 234 236 237 237 239 242 241 240 241 241 243 245 245 245 247 247 249 255 261 260 255 252 249 246 249 255 257 258 257 255 256 258 260 263 265 265 264 264 265 269 271 271 270 269 268 266 265 267 269 271 272
250 249 245 250 254 245 242 248 251 250 249 245 238 237 240 242 242 236 230 229 226 226 230 234 236 238 239 239 238 237 238 241 241 238 235 235 237 237 237 240 241 239 239 240 241 243 243 243 246 247 248 252 259 261 258 255 250 245 247 253 255 256 255 253 254 255 257 261 264 265 265 263 263 266 269 270 269 269 269 267 267 269 269 269 271
246 247 244 243 243 240 236 238 246 254 255 249 239 235 238 243 246 243 238 233 230 228 229 233 236 239 240 241 240 239 239 239 237 236 234 233 234 235 235 238 240 238 237 240 241 242 242 242 244 246 247 250 256 261 260 257 252 245 246 252 253 254 254 252 252 253 254 258 261 264 265 264 262 263 266 269 269 269 270 269 268 270 269 269 271
242 244 244 241 239 238 235 236 242 250 251 248 242 240 245 249 249 246 242 238 235 233 231 233 237 242 245 245 244 243 242 241 237 234 232 230 231 231 233 237 239 237 236 238 240 242 243 243 243 246 246 248 253 259 260 257 252 245 246 250 251 253 253 251 251 251 252 255 259 262 265 265 264 262 263 268 269 268 269 269 269 270 270 270 272
239 240 241 240 238 238 239 240 242 244 244 243 242 245 250 253 250 246 243 240 239 237 234 233 234 239 245 247 246 246 245 245 243 238 236 233 231 230 233 237 239 238 237 237 238 241 243 243 244 245 246 247 251 257 259 257 251 245 245 248 250 252 253 250 249 250 250 253 256 259 263 265 265 263 262 265 268 267 267 268 269 270 270 271 273
236 236 235 236 236 236 240 241 237 239 243 243 246 252 254 254 250 244 241 240 240 239 237 233 230 232 237 243 245 245 244 246 247 246 244 241 236 234 235 237 239 239 239 238 237 239 241 243 245 245 246 246 249 254 258 256 249 244 245 247 248 250 251 249 249 249 250 253 255 256 260 263 265 265 262 263 265 265 264 265 267 269 271 273 274
231 235 233 231 232 232 236 236 230 232 242 247 252 257 259 257 252 244 241 242 241 241 239 235 230 229 232 240 244 242 240 242 245 246 247 245 242 239 237 237 239 240 241 240 239 238 239 242 245 245 246 246 246 252 257 254 247 244 245 246 246 248 250 249 249 250 251 254 255 255 257 261 265 266 263 260 262 263 263 263 266 268 270 272 274
226 230 232 230 229 228 232 235 232 231 236 241 245 249 252 255 255 249 245 244 244 243 243 241 236 231 230 238 245 243 241 240 239 241 243 244 245 244 240 239 239 240 241 241 240 239 239 241 243 245 246 246 245 249 255 253 246 243 244 244 244 246 249 248 249 251 253 255 256 255 256 259 262 265 263 260 260 262 262 262 264 266 269 271 273
226 225 230 231 230 228 229 231 233 235 238 239 240 242 244 249 254 252 247 246 247 246 248 254 250 237 230 234 243 247 245 241 237 237 238 240 244 246 243 241 242 241 241 243 243 243 241 241 243 244 245 246 246 248 252 251 245 243 244 244 242 245 248 248 249 252 254 256 256 254 255 257 260 263 264 261 259 260 262 263 263 265 267 270 272
231 226 230 232 230 231 231 230 234 241 245 245 246 247 246 248 251 249 246 246 248 249 251 257 261 249 235 233 239 246 249 248 242 239 238 237 240 246 247 245 244 244 243 243 244 244 242 240 241 243 244 244 245 247 249 249 245 243 243 242 241 244 247 247 249 254 256 257 257 255 254 256 258 261 264 262 258 258 261 263 263 263 266 269 272
243 232 232 233 232 232 233 234 238 243 245 246 249 250 249 247 246 245 245 245 246 248 252 257 261 259 245 236 236 240 245 248 248 246 244 242 240 243 247 249 248 247 247 245 243 241 240 239 239 241 242 241 241 243 245 246 245 243 242 241 241 243 246 247 250 256 259 259 258 256 255 256 257 259 264 263 258 255 259 262 262 263 266 268 269
256 240 234 232 232 235 237 237 238 240 242 243 245 247 246 243 240 240 241 242 244 248 254 257 257 256 250 243 239 238 240 244 247 247 247 246 245 243 243 247 250 249 249 249 245 240 238 237 237 238 239 239 240 241 242 244 244 242 240 240 240 243 246 247 251 257 260 261 260 259 256 256 256 258 263 266 260 253 255 260 262 262 262 261 263
271 246 233 231 232 235 239 239 238 239 241 242 243 244 244 244 244 241 238 240 244 247 249 255 257 254 251 247 245 244 241 242 246 248 246 246 249 247 242 243 247 249 250 251 248 243 239 236 235 236 237 237 238 239 240 241 241 239 238 238 240 244 247 247 251 257 260 261 262 260 257 256 255 257 262 266 263 253 251 256 260 259 258 258 261
289 251 234 232 233 234 237 239 240 241 241 242 243 243 244 247 249 247 243 244 246 245 246 252 256 256 253 249 248 251 250 247 248 250 248 245 246 247 246 242 241 243 247 249 250 248 243 237 234 235 235 236 237 238 238 238 237 236 235 236 240 245 246 247 252 258 262 262 262 261 258 256 254 255 260 265 266 258 251 252 256 257 258 260 261
311 269 247 238 236 238 238 237 239 239 236 235 237 240 244 246 246 247 249 249 248 245 246 251 255 257 256 253 251 254 257 256 255 254 251 247 244 243 246 247 244 241 242 244 247 249 248 242 236 233 233 235 237 237 236 235 234 233 234 237 240 244 246 248 252 257 261 261 261 259 257 254 253 255 260 265 268 263 253 250 253 257 259 261 260
336 294 264 250 244 245 244 242 242 240 234 230 232 238 243 246 247 249 251 250 248 247 248 252 258 263 265 263 260 260 261 262 261 258 256 252 246 242 243 247 249 248 247 245 245 248 251 249 241 234 231 233 235 236 235 234 233 234 235 238 241 245 246 247 251 256 260 261 259 257 254 251 251 253 255 261 266 264 253 249 252 257 259 261 260
352 324 286 264 254 250 249 248 248 247 243 237 236 240 245 250 255 258 258 255 253 253 256 259 263 269 273 273 270 266 263 263 262 260 257 252 249 247 246 247 249 251 251 249 245 244 247 250 246 239 233 232 234 234 234 234 233 234 236 238 241 245 247 247 250 253 256 258 257 254 251 250 250 250 252 259 265 263 253 249 251 254 257 259 259
356 336 312 290 272 262 258 256 252 250 249 246 243 246 250 255 259 260 259 259 260 262 267 270 272 274 274 274 273 269 264 263 261 259 257 252 246 245 248 250 252 253 254 255 252 247 244 245 246 242 236 233 233 233 233 233 233 233 236 238 240 244 246 247 248 251 254 257 256 251 249 249 249 249 251 255 258 257 254 252 252 254 257 257 255
359 337 317 307 295 282 274 268 259 252 246 241 242 246 248 251 256 257 256 258 263 270 274 273 274 274 273 273 273 269 265 264 261 260 263 261 250 243 245 250 253 254 255 257 258 254 248 244 243 241 236 233 234 233 232 232 233 234 236 237 240 244 247 247 248 250 253 256 254 249 247 247 248 249 249 249 251 255 258 257 253 253 255 254 251
6 356 331 315 311 302 289 278 271 268 259 245 239 242 245 246 250 253 255 257 261 268 271 269 269 270 271 273 273 270 268 267 264 262 264 265 258 250 247 251 254 254 255 256 256 254 252 249 244 240 237 235 234 233 232 233 234 234 236 238 240 243 246 247 247 249 251 253 251 249 249 250 252 253 253 250 250 254 258 258 254 249 247 247 247
6 11 358 329 316 312 303 291 279 276 273 257 244 244 248 247 247 249 252 256 261 265 266 264 264 267 271 275 275 273 270 269 266 263 263 263 260 253 249 250 253 255 258 260 257 254 255 254 248 243 240 238 237 235 234 234 235 235 235 236 239 242 245 245 245 246 248 250 250 250 251 253 255 257 257 255 254 256 256 253 247 240 240 242 242
358 8 12 3 343 322 301 283 273 268 264 253 244 243 245 246 248 250 253 257 261 263 264 263 264 266 271 276 278 275 271 267 264 262 262 260 257 252 249 248 249 253 258 259 257 256 257 256 250 244 239 237 240 240 236 234 236 237 237 236 237 239 242 243 242 242 243 245 246 247 249 252 255 258 259 260 261 260 257 250 239 229 234 237 236